Location: ??????
(42.0089°N, 44.3281°E)
Time: 11:56:50
(UTC+00:00)

Milstar 3 Cent rocket - Pass Details

Date: 24 October 2021
Orbit: 706 x 5147 km, 28.3° (Epoch: 07 December)

Event Time Altitude Azimuth Distance (km) Brightness Sun altitude
Rises 15:41:55 0° 216° (SW) 3,465 5.9 -18.2°
Reaches altitude 10° 15:44:33 10° 200° (SSW) 2,806 5.1 -18.7°
Maximum altitude 15:49:45 23° 149° (SSE) 2,609 4.4 -19.6°
Enters shadow 15:52:31 20° 126° (SE) 3,127 4.6 -20.1°
